NORTHEAST SUFFOLK  -  Rip Current Statement Rip Current Statement        NORTHWEST SUFFOLK  -  Rip Current Statement Rip Current Statement        SOUTHEAST SUFFOLK  -  Rip Current Statement Rip Current Statement        SOUTHWEST SUFFOLK  -  Rip Current Statement Rip Current Statement      

Active alerts

Northwest Suffolk
  Details for Northwest Suffolk Rip Current Statement
Southwest Suffolk
  Details for Southwest Suffolk Rip Current Statement
Northeast Suffolk
  Details for Northeast Suffolk Rip Current Statement
Southeast Suffolk
  Details for Southeast Suffolk Rip Current Statement


WXM80 ListenWXM80 Stop

You find our weather info also at:

UK Metoffice

WeatherCloud

Weather Underground

Northeastern Weather Network

AWEKAS

Citizen Weather Observer Program (CWOP)

HAMweather, WeatherForYou, PWS Weather


Weather Underground History page Text

Daily Summary for February 19, 2018 Units:  Metric    English   Both
« Previous Day
Next Day »
Daily Weekly Monthly Yearly Custom
  High: Low: Average:
Temperature: 11.4 °C -0.9 °C 6.2 °C
Dew Point: 9.8 °C -3.2 °C 3.7 °C
Humidity: 97 % 66 % 84 %
Wind Speed: 17.2 km/h 0 km/h 4.7 km/h
Wind Gust: 25.9 km/h - -
Wind:- - South
Pressure: 1025.6 hPa 1017.5 hPa -
Precipitation: 0 mm    
Historical Graphs
 
 
Tabular Data for February 19, 2018
Time Temperature Dew Point Pressure Wind Wind Speed Wind Gust Humidity Rainfall Rate (Hourly)
00:00 -0.9 °C -2.5 °C 1025.3 hPa East 1.9 km/h 3.7 km/h 89 % 0 mm
00:05 -0.8 °C -2.4 °C 1024.9 hPa East 1.6 km/h 3.7 km/h 89 % 0 mm
00:06 -0.8 °C -2.4 °C 1024.9 hPa East 3.1 km/h 5.6 km/h 89 % 0 mm
00:11 -0.7 °C -2.3 °C 1025.3 hPa East 3.5 km/h 5.6 km/h 89 % 0 mm
00:16 -0.6 °C -2.3 °C 1024.9 hPa ESE 2.1 km/h 5.6 km/h 88 % 0 mm
00:21 -0.4 °C -2.1 °C 1025.3 hPa East 0.3 km/h 1.9 km/h 88 % 0 mm
00:27 -0.3 °C -2.2 °C 1025.3 hPa East 0.3 km/h 1.9 km/h 87 % 0 mm
00:32 -0.2 °C -2.1 °C 1025.3 hPa SE 2.1 km/h 7.4 km/h 87 % 0 mm
00:37 -0.2 °C -2.2 °C 1025.3 hPa SE 3.7 km/h 5.6 km/h 86 % 0 mm
00:42 -0.1 °C -2.3 °C 1025.3 hPa SSE 3.7 km/h 7.4 km/h 85 % 0 mm
00:47 0.1 °C -2.3 °C 1025.3 hPa ESE 0.5 km/h 3.7 km/h 84 % 0 mm
00:52 0.2 °C -2.4 °C 1025.3 hPa SE 4.3 km/h 9.3 km/h 83 % 0 mm
00:57 0.2 °C -2.5 °C 1025.3 hPa SE 1.9 km/h 5.6 km/h 82 % 0 mm
01:02 0.3 °C -2.6 °C 1025.3 hPa SSE 5 km/h 5.6 km/h 81 % 0 mm
01:07 0.3 °C -2.6 °C 1024.9 hPa SE 3.7 km/h 5.6 km/h 81 % 0 mm
01:12 0.4 °C -2.6 °C 1025.3 hPa SE 3.4 km/h 7.4 km/h 80 % 0 mm
01:17 0.5 °C -2.7 °C 1024.9 hPa SE 4.7 km/h 5.6 km/h 79 % 0 mm
01:22 0.5 °C -2.9 °C 1024.9 hPa SSE 4.5 km/h 7.4 km/h 78 % 0 mm
01:27 0.6 °C -2.8 °C 1025.3 hPa SE 3.5 km/h 5.6 km/h 78 % 0 mm
01:32 0.6 °C -2.8 °C 1025.3 hPa SE 3.9 km/h 5.6 km/h 78 % 0 mm
01:37 0.7 °C -2.9 °C 1024.9 hPa SE 3.1 km/h 5.6 km/h 77 % 0 mm
01:42 0.7 °C -2.9 °C 1024.9 hPa SSE 0.5 km/h 3.7 km/h 77 % 0 mm
01:47 0.7 °C -2.9 °C 1024.9 hPa SE 3.1 km/h 5.6 km/h 77 % 0 mm
01:57 0.6 °C -2.9 °C 1024.9 hPa SSE 1.6 km/h 3.7 km/h 77 % 0 mm
02:02 0.7 °C -2.9 °C 1024.9 hPa SSE 4.7 km/h 5.6 km/h 77 % 0 mm
02:07 0.6 °C -2.9 °C 1024.9 hPa ESE 3.4 km/h 5.6 km/h 77 % 0 mm
02:12 0.6 °C -2.9 °C 1024.9 hPa SE 5 km/h 8 km/h 77 % 0 mm
02:18 0.6 °C -2.9 °C 1024.9 hPa SSE 1.6 km/h 5.6 km/h 77 % 0 mm
02:23 0.6 °C -2.9 °C 1024.9 hPa SE 2.6 km/h 5.6 km/h 77 % 0 mm
02:28 0.6 °C -3.1 °C 1024.9 hPa SE 5 km/h 5.6 km/h 76 % 0 mm
02:33 0.6 °C -3.1 °C 1024.9 hPa SSE 5.5 km/h 9.3 km/h 76 % 0 mm
02:38 0.7 °C -3.1 °C 1024.9 hPa SSE 6.6 km/h 9.7 km/h 76 % 0 mm
02:43 0.7 °C -3.2 °C 1025.3 hPa SSE 3.5 km/h 5.6 km/h 75 % 0 mm
02:48 0.7 °C -3.1 °C 1024.9 hPa SSE 4 km/h 9.3 km/h 76 % 0 mm
02:53 0.7 °C -3.2 °C 1025.3 hPa SE 4.5 km/h 7.4 km/h 75 % 0 mm
02:58 0.8 °C -3.2 °C 1024.9 hPa SSE 5.8 km/h 8 km/h 75 % 0 mm
03:03 0.8 °C -3.2 °C 1025.3 hPa SE 5.5 km/h 7.4 km/h 75 % 0 mm
03:08 0.8 °C -3.2 °C 1025.3 hPa SE 3.9 km/h 9.7 km/h 75 % 0 mm
03:13 0.8 °C -3.2 °C 1025.3 hPa SSE 5.1 km/h 6.4 km/h 75 % 0 mm
03:18 0.8 °C -3.1 °C 1024.9 hPa SSE 7.4 km/h 13 km/h 75 % 0 mm
03:23 0.9 °C -3 °C 1024.9 hPa SE 3.9 km/h 13 km/h 75 % 0 mm
03:28 1.1 °C -2.9 °C 1024.9 hPa SSE 5.6 km/h 9.3 km/h 75 % 0 mm
03:33 1.1 °C -2.8 °C 1024.9 hPa SSE 4.7 km/h 7.4 km/h 75 % 0 mm
03:38 1.1 °C -2.8 °C 1024.9 hPa SSE 1.4 km/h 5.6 km/h 75 % 0 mm
03:43 1.1 °C -2.8 °C 1024.9 hPa SSE 3.7 km/h 5.6 km/h 75 % 0 mm
03:48 1.1 °C -2.7 °C 1024.9 hPa SSE 2.3 km/h 5.6 km/h 76 % 0 mm
03:53 1.1 °C -2.7 °C 1024.9 hPa SSE 5.8 km/h 7.4 km/h 76 % 0 mm
03:59 1.1 °C -2.5 °C 1024.9 hPa SSE 3.7 km/h 7.4 km/h 77 % 0 mm
04:04 1.2 °C -2.4 °C 1024.9 hPa SSE 4.3 km/h 7.4 km/h 77 % 0 mm
04:09 1.2 °C -2.4 °C 1024.9 hPa SSE 3.5 km/h 5.6 km/h 77 % 0 mm
04:14 1.2 °C -2.2 °C 1024.9 hPa Calm   5.6 km/h 78 % 0 mm
04:19 1.2 °C -2.2 °C 1024.9 hPa SSE 1.6 km/h 3.7 km/h 78 % 0 mm
04:24 1.2 °C -2.1 °C 1024.9 hPa SSE 1.1 km/h 3.7 km/h 79 % 0 mm
04:29 1.2 °C -2.1 °C 1024.9 hPa SSE 3.1 km/h 5.6 km/h 79 % 0 mm
04:34 1.2 °C -1.9 °C 1024.9 hPa SSE 1.9 km/h 5.6 km/h 80 % 0 mm
04:39 1.2 °C -1.9 °C 1024.9 hPa SSE 4 km/h 5.6 km/h 80 % 0 mm
04:44 1.2 °C -1.7 °C 1024.9 hPa SSE 3.4 km/h 3.7 km/h 81 % 0 mm
04:49 1.2 °C -1.7 °C 1024.9 hPa SSE 2.4 km/h 5.6 km/h 81 % 0 mm
04:54 1.2 °C -1.7 °C 1024.6 hPa SSE 3.7 km/h 3.7 km/h 81 % 0 mm
05:00 1.2 °C -1.6 °C 1024.9 hPa Calm     82 % 0 mm
05:05 1.2 °C -1.6 °C 1024.9 hPa Calm   5.6 km/h 82 % 0 mm
05:10 1.2 °C -1.6 °C 1024.9 hPa SSE 0.5 km/h 3.7 km/h 82 % 0 mm
05:15 1.2 °C -1.6 °C 1024.6 hPa Calm     82 % 0 mm
05:20 1.1 °C -1.6 °C 1024.9 hPa SSE 0.3 km/h 1.9 km/h 82 % 0 mm
05:25 1.1 °C -1.7 °C 1024.9 hPa Calm     82 % 0 mm
05:30 1.1 °C -1.7 °C 1024.9 hPa Calm     82 % 0 mm
05:35 1 °C -1.6 °C 1025.3 hPa Calm     83 % 0 mm
05:40 0.9 °C -1.6 °C 1024.9 hPa South 4.3 km/h 5.6 km/h 83 % 0 mm
05:45 0.8 °C -1.7 °C 1025.3 hPa South 1.3 km/h 3.7 km/h 83 % 0 mm
05:50 0.8 °C -1.6 °C 1025.3 hPa Calm     84 % 0 mm
05:55 0.8 °C -1.4 °C 1025.3 hPa Calm     85 % 0 mm
06:00 0.7 °C -1.3 °C 1025.3 hPa Calm     86 % 0 mm
06:05 0.7 °C -1.4 °C 1025.3 hPa Calm     86 % 0 mm
06:10 0.7 °C -1.2 °C 1025.3 hPa Calm     87 % 0 mm
06:15 0.6 °C -1.2 °C 1025.3 hPa Calm     88 % 0 mm
06:20 0.6 °C -1.2 °C 1025.3 hPa Calm     88 % 0 mm
06:25 0.5 °C -1.3 °C 1025.3 hPa Calm     88 % 0 mm
06:30 0.4 °C -1.4 °C 1025.3 hPa Calm     88 % 0 mm
06:35 0.3 °C -1.4 °C 1025.3 hPa Calm     88 % 0 mm
06:41 0.3 °C -1.3 °C 1025.3 hPa Calm     89 % 0 mm
06:46 0.2 °C -1.4 °C 1025.3 hPa Calm     89 % 0 mm
06:51 0.1 °C -1.5 °C 1025.3 hPa Calm     89 % 0 mm
06:56 0.1 °C -1.6 °C 1025.3 hPa Calm     89 % 0 mm
07:01 0 °C -1.6 °C 1025.3 hPa Calm     89 % 0 mm
07:06 -0.1 °C -1.7 °C 1025.3 hPa Calm     89 % 0 mm
07:11 -0.1 °C -1.7 °C 1025.3 hPa Calm     89 % 0 mm
07:16 -0.1 °C -1.7 °C 1025.3 hPa Calm     89 % 0 mm
07:21 -0.1 °C -1.7 °C 1025.3 hPa Calm     89 % 0 mm
07:26 -0.1 °C -1.5 °C 1025.3 hPa Calm     90 % 0 mm
07:31 -0.1 °C -1.5 °C 1025.3 hPa Calm     90 % 0 mm
07:36 0 °C -1.4 °C 1025.3 hPa Calm     90 % 0 mm
07:41 0 °C -1.4 °C 1025.6 hPa Calm     90 % 0 mm
07:46 0 °C -1.4 °C 1025.6 hPa Calm     90 % 0 mm
07:51 0.1 °C -1.4 °C 1025.6 hPa Calm     90 % 0 mm
07:56 0.2 °C -1.1 °C 1025.3 hPa Calm     91 % 0 mm
08:01 0.2 °C -1.1 °C 1025.3 hPa Calm     91 % 0 mm
08:06 0.3 °C -1 °C 1025.3 hPa Calm     91 % 0 mm
08:11 0.6 °C -0.6 °C 1025.3 hPa Calm     92 % 0 mm
08:16 0.8 °C -0.2 °C 1025.3 hPa Calm     93 % 0 mm
08:21 1.2 °C 0.2 °C 1025.3 hPa Calm     93 % 0 mm
08:26 1.6 °C 0.7 °C 1025.3 hPa Calm     94 % 0 mm
08:31 2 °C 1.1 °C 1025.6 hPa Calm     94 % 0 mm
08:36 2.4 °C 1.5 °C 1025.6 hPa Calm     94 % 0 mm
08:42 2.8 °C 1.9 °C 1025.6 hPa South 0.8 km/h 1.6 km/h 94 % 0 mm
08:47 3.2 °C 2.3 °C 1025.6 hPa ENE 3.5 km/h 5.6 km/h 94 % 0 mm
08:52 3.6 °C 2.6 °C 1025.6 hPa ENE 1.1 km/h 1.9 km/h 93 % 0 mm
08:57 3.9 °C 2.9 °C 1025.6 hPa ENE 0.2 km/h 1.9 km/h 93 % 0 mm
09:02 4.4 °C 3.2 °C 1025.6 hPa ENE 0.2 km/h 3.7 km/h 92 % 0 mm
09:07 4.8 °C 3.3 °C 1025.3 hPa ENE 0.8 km/h 3.2 km/h 90 % 0 mm
09:12 5.2 °C 3.3 °C 1025.3 hPa Calm     88 % 0 mm
09:17 5.5 °C 3.5 °C 1024.9 hPa ENE 0.8 km/h 3.2 km/h 87 % 0 mm
09:22 5.9 °C 3.8 °C 1024.6 hPa South 3.7 km/h 9.3 km/h 86 % 0 mm
09:27 6.7 °C 3.6 °C 1024.9 hPa South 12.6 km/h 18.5 km/h 81 % 0 mm
09:32 7.2 °C 3.8 °C 1025.3 hPa SSE 3.4 km/h 9.7 km/h 79 % 0 mm
09:37 7.6 °C 3.8 °C 1024.9 hPa SW 7.6 km/h 11.3 km/h 77 % 0 mm
09:42 8 °C 4 °C 1024.9 hPa SW 5.1 km/h 13 km/h 76 % 0 mm
09:47 8.4 °C 4 °C 1024.9 hPa SSW 8.7 km/h 14.8 km/h 74 % 0 mm
09:52 8.7 °C 3.9 °C 1024.9 hPa SSE 10 km/h 16.7 km/h 72 % 0 mm
09:58 8.9 °C 4.1 °C 1024.6 hPa SSW 5.3 km/h 16.7 km/h 72 % 0 mm
10:03 9.2 °C 4.2 °C 1024.6 hPa SSW 6.9 km/h 18.5 km/h 71 % 0 mm
10:08 9.3 °C 4.1 °C 1024.6 hPa SW 10.5 km/h 18.5 km/h 70 % 0 mm
10:13 9.4 °C 4.2 °C 1024.6 hPa SSW 13 km/h 20.4 km/h 70 % 0 mm
10:18 9.6 °C 4.2 °C 1024.3 hPa SSW 8.7 km/h 16.7 km/h 69 % 0 mm
10:23 9.8 °C 4.6 °C 1024.3 hPa South 9.3 km/h 25.9 km/h 70 % 0 mm
10:28 9.9 °C 4.4 °C 1024.3 hPa SSE 3.4 km/h 9.3 km/h 69 % 0 mm
10:33 10 °C 4.6 °C 1024.6 hPa SSW 10 km/h 13 km/h 69 % 0 mm
10:38 10.2 °C 4.8 °C 1024.6 hPa SSW 12.2 km/h 18.5 km/h 69 % 0 mm
10:43 10.4 °C 4.5 °C 1024.6 hPa SSW 9.8 km/h 18.5 km/h 67 % 0 mm
10:48 10.6 °C 5.2 °C 1024.3 hPa South 8.5 km/h 19.3 km/h 69 % 0 mm
10:53 10.7 °C 4.8 °C 1024.3 hPa South 10.8 km/h 22.2 km/h 67 % 0 mm
10:58 10.9 °C 5.3 °C 1024.3 hPa SW 5.5 km/h 14.8 km/h 68 % 0 mm
11:03 11.3 °C 5.4 °C 1023.9 hPa SSW 11.6 km/h 16.7 km/h 67 % 0 mm
11:09 11.4 °C 5.3 °C 1023.9 hPa SW 17.2 km/h 25.7 km/h 66 % 0 mm
11:14 11.4 °C 5.3 °C 1023.9 hPa SSW 13.2 km/h 18.5 km/h 66 % 0 mm
11:19 11.4 °C 5.3 °C 1023.6 hPa South 9.5 km/h 16.7 km/h 66 % 0 mm
11:24 11.1 °C 4.9 °C 1023.9 hPa SW 9.2 km/h 16.7 km/h 66 % 0 mm
11:29 10.8 °C 4.9 °C 1023.9 hPa WSW 9.3 km/h 19.3 km/h 67 % 0 mm
11:34 10.6 °C 4.7 °C 1023.6 hPa South 7.7 km/h 16.7 km/h 67 % 0 mm
11:39 10.5 °C 5.1 °C 1023.6 hPa SW 5.6 km/h 13 km/h 69 % 0 mm
11:44 10.5 °C 5.3 °C 1023.6 hPa SSW 1.6 km/h 5.6 km/h 70 % 0 mm
11:49 10.6 °C 5.1 °C 1023.6 hPa South 7.4 km/h 11.1 km/h 69 % 0 mm
11:54 10.6 °C 5.3 °C 1023.2 hPa SSW 7.6 km/h 14.8 km/h 70 % 0 mm
11:59 10.6 °C 5.3 °C 1023.2 hPa South 4.8 km/h 11.1 km/h 70 % 0 mm
12:04 10.6 °C 5.5 °C 1022.9 hPa WSW 9 km/h 14.8 km/h 71 % 0 mm
12:09 10.6 °C 5.5 °C 1022.9 hPa South 9.3 km/h 18.5 km/h 71 % 0 mm
12:14 10.5 °C 5.4 °C 1022.9 hPa South 8.9 km/h 13 km/h 71 % 0 mm
12:19 10.5 °C 5.4 °C 1022.6 hPa South 7.4 km/h 18.5 km/h 71 % 0 mm
12:25 10.6 °C 5.5 °C 1022.2 hPa SSE 8.2 km/h 11.3 km/h 71 % 0 mm
12:30 10.5 °C 5.4 °C 1022.2 hPa South 4.3 km/h 13 km/h 71 % 0 mm
12:35 10.4 °C 5.4 °C 1021.9 hPa SW 11.9 km/h 18.5 km/h 71 % 0 mm
12:40 10.4 °C 5.6 °C 1021.9 hPa South 6.8 km/h 14.8 km/h 72 % 0 mm
12:45 10.4 °C 5.8 °C 1021.9 hPa South 9.7 km/h 16.7 km/h 73 % 0 mm
12:50 10.4 °C 5.8 °C 1021.9 hPa South 7.1 km/h 11.1 km/h 73 % 0 mm
12:55 10.4 °C 5.8 °C 1021.9 hPa South 11.6 km/h 17.7 km/h 73 % 0 mm
13:00 10.3 °C 5.7 °C 1021.9 hPa SW 6.6 km/h 11.1 km/h 73 % 0 mm
13:05 10.3 °C 5.8 °C 1021.9 hPa SSW 8 km/h 16.7 km/h 74 % 0 mm
13:10 10.2 °C 5.8 °C 1021.6 hPa SSE 2.6 km/h 5.6 km/h 74 % 0 mm
13:15 10.2 °C 6 °C 1021.2 hPa South 7.7 km/h 11.3 km/h 75 % 0 mm
13:20 10.2 °C 6 °C 1021.2 hPa WSW 8.2 km/h 13 km/h 75 % 0 mm
13:25 10.2 °C 6.1 °C 1021.2 hPa South 7.9 km/h 13 km/h 76 % 0 mm
13:30 10.2 °C 6.2 °C 1021.2 hPa SSW 6.6 km/h 11.1 km/h 76 % 0 mm
13:35 10.2 °C 6.1 °C 1021.2 hPa SSE 5.5 km/h 7.4 km/h 76 % 0 mm
13:40 10.1 °C 6.3 °C 1020.9 hPa WSW 6.6 km/h 11.1 km/h 77 % 0 mm
13:45 10.1 °C 6.2 °C 1021.2 hPa SSW 10.6 km/h 18.5 km/h 77 % 0 mm
13:51 10 °C 6.2 °C 1020.9 hPa SSW 9.7 km/h 22.5 km/h 77 % 0 mm
13:56 9.9 °C 6.3 °C 1020.9 hPa SSW 11.3 km/h 20.9 km/h 78 % 0 mm
14:01 9.9 °C 6.2 °C 1020.9 hPa SSW 9.7 km/h 18.5 km/h 78 % 0 mm
14:06 9.8 °C 6.4 °C 1020.9 hPa SSW 9 km/h 13 km/h 79 % 0 mm
14:11 9.8 °C 6.4 °C 1020.5 hPa South 9 km/h 14.8 km/h 79 % 0 mm
14:16 9.8 °C 6.4 °C 1020.5 hPa South 3.9 km/h 11.1 km/h 79 % 0 mm
14:26 9.8 °C 6.6 °C 1020.5 hPa WSW 5.1 km/h 7.4 km/h 80 % 0 mm
14:31 9.8 °C 6.6 °C 1020.9 hPa South 6.1 km/h 11.3 km/h 80 % 0 mm
14:36 9.9 °C 6.6 °C 1020.9 hPa SSW 3.5 km/h 5.6 km/h 80 % 0 mm
14:41 9.9 °C 6.6 °C 1020.9 hPa SW 1.8 km/h 5.6 km/h 80 % 0 mm
14:46 9.9 °C 6.6 °C 1020.9 hPa WSW 5.1 km/h 7.4 km/h 80 % 0 mm
14:51 9.8 °C 6.7 °C 1020.5 hPa South 8.5 km/h 20.4 km/h 81 % 0 mm
14:56 9.8 °C 6.7 °C 1020.9 hPa SSW 9 km/h 16.7 km/h 81 % 0 mm
15:01 9.8 °C 6.7 °C 1020.9 hPa South 6 km/h 11.1 km/h 81 % 0 mm
15:06 9.8 °C 6.8 °C 1020.9 hPa SW 4 km/h 14.5 km/h 82 % 0 mm
15:11 9.8 °C 6.8 °C 1020.9 hPa SSE 7.9 km/h 16.7 km/h 82 % 0 mm
15:16 9.8 °C 6.8 °C 1020.5 hPa South 6.3 km/h 7.4 km/h 82 % 0 mm
15:21 9.8 °C 6.8 °C 1020.5 hPa SW 8 km/h 17.7 km/h 82 % 0 mm
15:27 9.8 °C 7 °C 1020.5 hPa SSW 6.3 km/h 13 km/h 83 % 0 mm
15:32 9.8 °C 6.8 °C 1020.5 hPa West 4.7 km/h 13 km/h 82 % 0 mm
15:37 9.8 °C 7 °C 1020.5 hPa SSW 2.9 km/h 12.9 km/h 83 % 0 mm
15:42 9.7 °C 7 °C 1020.5 hPa SW 4.3 km/h 13 km/h 83 % 0 mm
15:47 9.7 °C 7 °C 1020.5 hPa SSW 4.8 km/h 9.3 km/h 83 % 0 mm
15:52 9.7 °C 7 °C 1020.5 hPa SW 1.4 km/h 5.6 km/h 83 % 0 mm
15:57 9.7 °C 7.1 °C 1020.5 hPa SSW 7.4 km/h 11.3 km/h 84 % 0 mm
16:02 9.6 °C 7.1 °C 1020.5 hPa SSW 5.6 km/h 12.9 km/h 84 % 0 mm
16:07 9.6 °C 7 °C 1020.5 hPa SSW 5.5 km/h 7.4 km/h 84 % 0 mm
16:12 9.6 °C 7 °C 1020.5 hPa SW 1.3 km/h 13 km/h 84 % 0 mm
16:17 9.6 °C 7.2 °C 1020.2 hPa SSW 6.4 km/h 16.7 km/h 85 % 0 mm
16:22 9.5 °C 7.1 °C 1020.5 hPa SSW 5.1 km/h 11.1 km/h 85 % 0 mm
16:27 9.4 °C 7.1 °C 1020.2 hPa SW 6.9 km/h 9.7 km/h 85 % 0 mm
16:32 9.4 °C 7.2 °C 1020.2 hPa WSW 5.1 km/h 9.7 km/h 86 % 0 mm
16:37 9.4 °C 7.2 °C 1019.9 hPa South 7.6 km/h 9.7 km/h 86 % 0 mm
16:42 9.3 °C 7.3 °C 1019.9 hPa SSW 4.7 km/h 11.1 km/h 87 % 0 mm
16:47 9.3 °C 7.4 °C 1019.9 hPa SSW 1.8 km/h 6.4 km/h 88 % 0 mm
16:53 9.2 °C 7.3 °C 1019.5 hPa SSW 4.7 km/h 6.4 km/h 88 % 0 mm
16:58 9.2 °C 7.3 °C 1019.5 hPa SW 1.4 km/h 9.3 km/h 88 % 0 mm
17:03 9.2 °C 7.4 °C 1019.9 hPa SSW 5 km/h 11.1 km/h 89 % 0 mm
17:08 9.2 °C 7.4 °C 1019.2 hPa South 3.9 km/h 7.4 km/h 89 % 0 mm
17:13 9.2 °C 7.4 °C 1019.2 hPa SSE 3.5 km/h 12.9 km/h 89 % 0 mm
17:18 9.1 °C 7.4 °C 1019.5 hPa SSW 2.1 km/h 9.3 km/h 89 % 0 mm
17:23 9.1 °C 7.5 °C 1019.5 hPa South 6.1 km/h 11.1 km/h 90 % 0 mm
17:28 9.1 °C 7.5 °C 1019.5 hPa South 4.7 km/h 9.3 km/h 90 % 0 mm
17:33 9.1 °C 7.5 °C 1019.5 hPa South 6.1 km/h 13 km/h 90 % 0 mm
17:38 9 °C 7.4 °C 1019.5 hPa SSW 4.7 km/h 5.6 km/h 90 % 0 mm
17:43 9 °C 7.4 °C 1019.5 hPa SW 7.9 km/h 18.5 km/h 90 % 0 mm
17:48 9 °C 7.6 °C 1019.5 hPa SSW 7.6 km/h 11.1 km/h 91 % 0 mm
17:53 9 °C 7.6 °C 1019.5 hPa SSW 2.9 km/h 9.7 km/h 91 % 0 mm
17:58 9 °C 7.6 °C 1019.5 hPa South 6.3 km/h 9.3 km/h 91 % 0 mm
18:03 9 °C 7.8 °C 1019.5 hPa SSW 6.8 km/h 9.3 km/h 92 % 0 mm
18:08 9 °C 7.8 °C 1019.5 hPa SSW 6 km/h 9.3 km/h 92 % 0 mm
18:13 8.9 °C 7.7 °C 1019.9 hPa SSW 2.6 km/h 6.4 km/h 92 % 0 mm
18:18 8.9 °C 7.7 °C 1019.5 hPa SSW 10.6 km/h 14.5 km/h 92 % 0 mm
18:23 8.9 °C 7.7 °C 1019.5 hPa SW 7.2 km/h 13 km/h 92 % 0 mm
18:28 8.9 °C 7.8 °C 1019.5 hPa SSW 3.7 km/h 7.4 km/h 93 % 0 mm
18:33 8.9 °C 7.8 °C 1019.2 hPa SSW 5.8 km/h 7.4 km/h 93 % 0 mm
18:39 8.9 °C 7.8 °C 1019.2 hPa SSW 2.9 km/h 5.6 km/h 93 % 0 mm
18:44 8.9 °C 7.8 °C 1019.2 hPa SW 5.5 km/h 11.1 km/h 93 % 0 mm
18:49 8.9 °C 7.8 °C 1019.2 hPa SW 4.5 km/h 11.1 km/h 93 % 0 mm
18:54 8.9 °C 7.9 °C 1018.8 hPa SSW 9.7 km/h 14.8 km/h 93 % 0 mm
18:59 8.9 °C 7.9 °C 1019.2 hPa SSW 7.7 km/h 11.1 km/h 93 % 0 mm
19:04 8.9 °C 7.9 °C 1019.2 hPa SSE 8.5 km/h 18.5 km/h 93 % 0 mm
19:09 9 °C 8.1 °C 1019.2 hPa South 4.7 km/h 9.3 km/h 94 % 0 mm
19:14 9 °C 8.1 °C 1018.8 hPa SSW 1.4 km/h 5.6 km/h 94 % 0 mm
19:19 9 °C 8.1 °C 1018.8 hPa SW 5.1 km/h 9.3 km/h 94 % 0 mm
19:24 9.1 °C 8.2 °C 1018.8 hPa SSE 3.9 km/h 9.3 km/h 94 % 0 mm
19:29 9.1 °C 8.2 °C 1018.8 hPa SSW 5.8 km/h 11.1 km/h 94 % 0 mm
19:34 9.1 °C 8.2 °C 1018.8 hPa SW 5.5 km/h 9.3 km/h 94 % 0 mm
19:39 9.2 °C 8.3 °C 1018.8 hPa SSW 7.6 km/h 12.9 km/h 94 % 0 mm
19:44 9.2 °C 8.3 °C 1018.8 hPa SSW 5.6 km/h 19.3 km/h 94 % 0 mm
19:49 9.3 °C 8.5 °C 1018.8 hPa South 4.8 km/h 16.1 km/h 95 % 0 mm
19:54 9.3 °C 8.5 °C 1018.8 hPa SSW 8.2 km/h 11.1 km/h 95 % 0 mm
19:59 9.3 °C 8.6 °C 1018.8 hPa South 8.5 km/h 12.9 km/h 95 % 0 mm
20:04 9.4 °C 8.6 °C 1019.2 hPa SW 9.8 km/h 13 km/h 95 % 0 mm
20:09 9.4 °C 8.7 °C 1019.2 hPa SW 11.1 km/h 19.3 km/h 95 % 0 mm
20:14 9.4 °C 8.7 °C 1019.2 hPa SW 6.1 km/h 11.1 km/h 95 % 0 mm
20:20 9.5 °C 8.7 °C 1019.2 hPa SW 4.5 km/h 20.4 km/h 95 % 0 mm
20:25 9.6 °C 8.8 °C 1019.2 hPa SSW 9.7 km/h 18.5 km/h 95 % 0 mm
20:30 9.6 °C 8.8 °C 1019.2 hPa SSW 7.2 km/h 11.3 km/h 95 % 0 mm
20:35 9.6 °C 8.8 °C 1019.2 hPa SW 8.2 km/h 14.8 km/h 95 % 0 mm
20:40 9.6 °C 9 °C 1019.5 hPa South 5.1 km/h 12.9 km/h 96 % 0 mm
20:45 9.6 °C 8.8 °C 1019.2 hPa SW 5 km/h 7.4 km/h 95 % 0 mm
20:50 9.6 °C 8.8 °C 1019.2 hPa SW 8.4 km/h 11.1 km/h 95 % 0 mm
20:55 9.7 °C 9.1 °C 1019.5 hPa WSW 7.4 km/h 18.5 km/h 96 % 0 mm
21:00 9.7 °C 9.1 °C 1019.2 hPa South 4.8 km/h 11.3 km/h 96 % 0 mm
21:05 9.7 °C 9.1 °C 1019.2 hPa South 5.6 km/h 9.3 km/h 96 % 0 mm
21:10 9.7 °C 9.1 °C 1018.8 hPa SW 4 km/h 7.4 km/h 96 % 0 mm
21:15 9.7 °C 9.1 °C 1019.2 hPa SW 3.9 km/h 5.6 km/h 96 % 0 mm
21:20 9.7 °C 9.1 °C 1019.2 hPa SSW 4.5 km/h 7.4 km/h 96 % 0 mm
21:25 9.7 °C 9.1 °C 1018.8 hPa SW 4.8 km/h 7.4 km/h 96 % 0 mm
21:30 9.7 °C 9.1 °C 1018.8 hPa SSW 8.9 km/h 11.1 km/h 96 % 0 mm
21:35 9.8 °C 9.2 °C 1018.8 hPa SSW 3.4 km/h 13 km/h 96 % 0 mm
21:40 9.8 °C 9.2 °C 1018.8 hPa SSW 4.8 km/h 12.9 km/h 96 % 0 mm
21:45 9.8 °C 9.2 °C 1018.5 hPa SSW 6.6 km/h 9.7 km/h 96 % 0 mm
21:50 9.8 °C 9.2 °C 1018.5 hPa SW 3.2 km/h 9.7 km/h 96 % 0 mm
21:55 9.8 °C 9.2 °C 1018.5 hPa SSW 1.6 km/h 12.9 km/h 96 % 0 mm
22:00 9.8 °C 9.2 °C 1018.5 hPa SSW 5.5 km/h 5.6 km/h 96 % 0 mm
22:05 9.8 °C 9.2 °C 1018.2 hPa SSW 5.3 km/h 11.1 km/h 96 % 0 mm
22:10 9.8 °C 9.2 °C 1018.2 hPa South 4.2 km/h 9.3 km/h 96 % 0 mm
22:15 9.8 °C 9.2 °C 1018.2 hPa SSW 8 km/h 12.9 km/h 96 % 0 mm
22:21 9.9 °C 9.3 °C 1018.2 hPa SSW 9.7 km/h 22.5 km/h 96 % 0 mm
22:26 9.9 °C 9.5 °C 1018.5 hPa SSW 3.2 km/h 16.1 km/h 97 % 0 mm
22:31 10 °C 9.6 °C 1018.5 hPa SW 8 km/h 14.5 km/h 97 % 0 mm
22:36 10.1 °C 9.6 °C 1018.5 hPa SW 4.8 km/h 9.7 km/h 97 % 0 mm
22:41 10.1 °C 9.7 °C 1018.5 hPa SW 4.8 km/h 16.1 km/h 97 % 0 mm
22:46 10.2 °C 9.7 °C 1018.5 hPa SW 3.2 km/h 12.9 km/h 97 % 0 mm
22:51 10.2 °C 9.7 °C 1018.5 hPa SW 4.8 km/h 11.3 km/h 97 % 0 mm
22:56 10.2 °C 9.7 °C 1018.5 hPa SW 4.8 km/h 9.7 km/h 97 % 0 mm
23:01 10.2 °C 9.8 °C 1018.5 hPa SSW 3.9 km/h 7.4 km/h 97 % 0 mm
23:06 10.2 °C 9.8 °C 1018.5 hPa SW 4.8 km/h 12.9 km/h 97 % 0 mm
23:11 10.3 °C 9.8 °C 1018.5 hPa SW 3.2 km/h 16.1 km/h 97 % 0 mm
23:16 10.2 °C 9.8 °C 1018.5 hPa SW 4.8 km/h 9.7 km/h 97 % 0 mm
23:21 10.2 °C 9.8 °C 1018.5 hPa SSW 3.2 km/h 12.9 km/h 97 % 0 mm
23:26 10.2 °C 9.8 °C 1018.5 hPa SW 3.2 km/h 8 km/h 97 % 0 mm
23:31 10.2 °C 9.7 °C 1018.5 hPa SW 3.2 km/h 12.9 km/h 97 % 0 mm
23:36 10.2 °C 9.7 °C 1018.2 hPa SW 1.6 km/h 6.4 km/h 97 % 0 mm
23:41 10.1 °C 9.7 °C 1018.2 hPa SW 3.2 km/h 6.4 km/h 97 % 0 mm
23:46 10.1 °C 9.6 °C 1017.8 hPa SSW 3.2 km/h 14.5 km/h 97 % 0 mm
23:51 10.1 °C 9.6 °C 1017.5 hPa SSW 3.2 km/h 6.4 km/h 97 % 0 mm
23:56 10 °C 9.4 °C 1017.5 hPa SSW 3.2 km/h 11.3 km/h 96 % 0 mm
Crab Meadow Weather
Compliments of Weather Underground - 3 mb

Script developed by  Jim McMurry - jmcmurry@mwt.net Adapted for the template by  Wim van der Kuil - Leuven-Template.eu

Weather Terms: Warning - A warning is issued when a hazardous weather or hydrologic event is occurring, imminent or likely. A warning means weather conditions pose a threat to life or property. People in the path of the storm need to take protective action.